Weather History for Guymon, OK

Change the Weather History Date:

Tuesday, November 15, 2011

  Actual Average Record
Temperature  
Mean Temperature 49 °F 46 °F  
Max Temperature 64 °F 61 °F 75 °F (1999)
Min Temperature 33 °F 31 °F 18 °F (2007)
Degree Days  
Heating Degree Days 16 19  
Month to date heating degree days 247 242  
Since 1 July heating degree days 476 551  
Cooling Degree Days 0 0  
Month to date cooling degree days 0 0  
Year to date cooling degree days 2163 1481  
Moisture  
Dew Point 24 °F    
Average Humidity 51    
Maximum Humidity 82    
Minimum Humidity 19    
Precipitation  
Precipitation 0.00 in 0.01 in 0.09 in (2001)
Month to date precipitation 0.52 0.30  
Year to date precipitation 7.18 18.43  
Snow  
Snow 0.00 in - - ()
Month to date snowfall T  
Since 1 July snowfall 1.5  
Since 1 September snowfall 1.5  
Snow Depth 0.00 in    
Sea Level Pressure  
Sea Level Pressure 29.80 in    
Wind  
Wind Speed 8 mph (ENE)    
Max Wind Speed 14 mph    
Max Gust Speed 18 mph    
Visibility 10 miles    
Events      
T = Trace of Precipitation, MM = Missing Value Source: NWS Daily Summary

Daily Weather History Graph

Daily Weather History Graph

Search for Another Location

Airport:

Trip Planner

Search our weather history database for the weather conditions in past years. The results will help you decide how hot, cold, wet, or windy it might be!

Date:

Astronomy

Nov. 15, 2011 Rise Set
Actual Time 7:23 AM CST 5:37 PM CST
Civil Twilight 6:56 AM CST 6:04 PM CST
Nautical Twilight 6:24 AM CST 6:35 PM CST
Astronomical Twilight 5:54 AM CST 7:06 PM CST
Moon 9:48 PM CST (11/15) 11:23 AM CST (11/15)
Length of Visible Light 11h 08m
Length of Day
10h 13m
Waning Gibbous, 79% of the Moon is Illuminated
Nov 15
Waning Gibbous
Nov 18
Last Quarter
Nov 25
New
Dec 2
First Quarter
Dec 10
Full

Hourly Weather History & Observations

Time (CST) Temp. Windchill Dew Point Humidity Pressure Visibility Wind Dir Wind Speed Gust Speed Precip Events Conditions
12:53 AM 37.9 °F 34.4 °F 30.9 °F 76% 29.70 in 10.0 mi West 4.6 mph - N/A   Clear
1:53 AM 43.0 °F 37.7 °F 30.9 °F 62% 29.68 in 10.0 mi WNW 9.2 mph - N/A   Clear
3:53 AM 39.0 °F 31.8 °F 28.0 °F 65% 29.69 in 10.0 mi West 11.5 mph - N/A   Clear
4:53 AM 37.0 °F 29.3 °F 27.0 °F 67% 29.70 in 10.0 mi West 11.5 mph - N/A   Clear
5:53 AM 37.9 °F 30.9 °F 26.1 °F 62% 29.73 in 10.0 mi West 10.4 mph - N/A   Clear
7:53 AM 36.0 °F 30.3 °F 26.1 °F 67% 29.79 in 10.0 mi NW 6.9 mph - N/A   Clear
8:53 AM 43.0 °F 40.3 °F 28.0 °F 56% 29.82 in 10.0 mi North 4.6 mph - N/A   Clear
9:53 AM 53.1 °F - 27.0 °F 37% 29.80 in 10.0 mi North 4.6 mph - N/A   Clear
10:53 AM 57.0 °F - 21.9 °F 26% 29.82 in 10.0 mi NE 5.8 mph - N/A   Clear
11:53 AM 60.1 °F - 19.9 °F 21% 29.83 in 10.0 mi ENE 8.1 mph - N/A   Clear
12:53 PM 62.1 °F - 21.0 °F 21% 29.80 in 10.0 mi ENE 8.1 mph - N/A   Clear
1:53 PM 63.0 °F - 19.0 °F 18% 29.77 in 10.0 mi NE 6.9 mph - N/A   Clear
2:53 PM 63.0 °F - 19.0 °F 18% 29.77 in 10.0 mi East 8.1 mph - N/A   Clear
3:53 PM 62.1 °F - 19.9 °F 20% 29.78 in 10.0 mi ENE 10.4 mph - N/A   Clear
4:53 PM 60.1 °F - 21.0 °F 22% 29.81 in 10.0 mi ESE 6.9 mph - N/A   Clear
5:53 PM 54.0 °F - 23.0 °F 30% 29.83 in 10.0 mi ESE 4.6 mph - N/A   Clear
6:53 PM 53.1 °F - 21.0 °F 29% 29.85 in 10.0 mi East 8.1 mph - N/A   Clear
7:53 PM 51.1 °F - 19.9 °F 29% 29.88 in 10.0 mi ESE 9.2 mph - N/A   Clear
8:53 PM 42.1 °F 40.2 °F 21.9 °F 45% 29.89 in 10.0 mi SSE 3.5 mph - N/A   Clear
9:53 PM 41.0 °F 37.1 °F 21.9 °F 47% 29.89 in 10.0 mi ESE 5.8 mph - N/A   Clear
10:53 PM 42.1 °F 37.7 °F 21.9 °F 45% 29.90 in 10.0 mi ESE 6.9 mph - N/A   Clear